Current weather by "City, St" or "zip code"  
 
Advertise Here

Current Conditions: Bartlesville, Bartlesville Municipal Airport, OK

Fair


40.0 F

Last Updated on Jan 22 2021, 2:53 am CST
Humidity: 68%
Wind Speed: N 11.5 mph
Barometer 30.07 in
Dewpoint: 30.0 F
Visibility: 10.00 mi
Precip: --
Heat Index: NA
Wind Chill: 33 F
Current conditions at:

Bartlesville, Bartlesville Municipal Airport, OK (KBVO)

Lat: 36.76833 Lon: 96.02611

Local Radar Image active severe weather and emergency alerts image image weather storm and storm spotter reports image weather observation monitoring service image
Local
Radar
Active
Alerts
Storm Reports Obs
Monitoring

Sign-up For Email & Text Message Weather Alert Notification Services


Advertise Here

Observation History for Bartlesville, Bartlesville Municipal Airport, OK


Time Wind
(mph)
Vis
(mi)
Weather Precip (in) Temperature (F) Relative
Humidity
Wind
Chill
(F)
Heat
Index
(F)
Pressure
Air Dwpt altimeter
(in)
sea level
(mb)
Rmks
2:53 am CST N 11.5 10.00 Fair -- 40.0 30.0 68% 33 NA 30.07 1017.9
1:53 am CST N 10.4 10.00 Fair -- 41.0 37.0 86% 35 NA 30.04 1017.1
12:53 am CST N 3.5 10.00 Fair -- 40.0 37.0 89% NA NA 30.04 1017.0
11:53 pm CST N 0.0 10.00 Fair -- 35.0 33.1 93% NA NA 30.02 1016.5
10:53 pm CST N 0.0 10.00 Fair -- 36.0 34.0 93% NA NA 30.02 1016.7
9:53 pm CST N 0.0 10.00 Fair -- 36.0 34.0 93% NA NA 30.00 1015.8
8:53 pm CST N 0.0 10.00 Fair -- 38.0 36.0 93% NA NA 29.98 1015.5
7:53 pm CST N 0.0 10.00 Fair -- 39.0 36.0 89% NA NA 29.98 1015.3
6:53 pm CST N 0.0 10.00 Fair -- 42.0 37.0 82% NA NA 29.97 1014.7
5:53 pm CST N 0.0 10.00 Fair -- 45.0 39.0 80% NA NA 29.94 1013.9
4:53 pm CST NE 4.6 10.00 Fair -- 50.0 39.9 68% 48 NA 29.94 1013.9
3:53 pm CST N 4.6 10.00 Fair -- 51.0 39.9 66% 50 NA 29.95 1014.0
2:53 pm CST N 0.0 10.00 Fair -- 51.0 41.0 69% NA NA 29.95 1014.2
1:53 pm CST S 3.5 10.00 Partly Cloudy -- 49.0 41.0 74% NA NA 29.97 1014.8
12:53 pm CST S 5.8 10.00 Overcast -- 48.0 41.0 77% 45 NA 29.98 1015.0
11:53 am CST S 6.9 10.00 Overcast -- 46.0 39.9 79% 42 NA 30.01 1016.3
10:53 am CST S 4.6 9.00 Overcast -- 41.0 39.0 93% 38 NA 30.03 1016.8
9:53 am CST N 0.0 4.00 Fog/Mist -- 37.0 37.0 100% NA NA 30.03 1017.1
8:53 am CST N 0.0 3.00 Fog/Mist -- 32.0 32.0 100% NA NA 30.01 1016.5
7:53 am CST N 0.0 1.25 Fog/Mist -- 30.0 30.0 100% NA NA 30.01 1016.5
6:53 am CST N 0.0 0.50 Freezing Fog -- 29.0 28.9 100% NA NA 30.01 1016.4
5:53 am CST N 0.0 4.00 Overcast -- 28.0 27.0 96% NA NA 29.99 1015.8
4:53 am CST N 0.0 0.25 Sky Obscured -- 29.0 28.0 96% NA NA 29.99 1015.6
3:53 am CST N 0.0 4.00 Mostly Cloudy -- 30.0 28.9 96% NA NA 30.00 1016.0

Regional Weather Observation


INDEPENDENCE, KS (KIDP)

Fair
35.0 F

Coffeyville, Coffeyville Municipal Airport, KS (KCFV)

Fair
40.0 F

Sand Springs, William R Pogue Municipal Airport, OK (KOWP)

Fair
44.0 F

Parsons, Tri-City Airport, KS (KPPF)

Fair
63.0 F

Lt. William M. Milliken Airport, KS (K13K)

Fair
29.0 F

Tulsa, Tulsa International Airport, OK (KTUL)

Overcast
42.0 F